RH
38 35 31 27 23 21 20 20 20 19 17 19 23 20 20 18 15 13 18 18 14 14 18 19 20 24 26 37 54 49 38 37 36 39 33 31 30 26 27 29 32 32 32 34 60 71 55 35 31
32 32 34 28 28 25 27 22 18 18 18 21 20 19 26 15 22 18 19 21 17 17 16 19 19 18 21 25 26 57 70 57 51 42 41 34 28 29 30 31 32 34 35 34 33 32 30 33 33
32 29 28 28 28 29 28 19 20 17 20 17 21 24 27 20 30 25 26 24 23 25 22 22 27 26 23 23 24 29 44 54 62 63 58 55 52 45 36 34 39 43 43 43 42 39 37 34 34
28 26 26 26 29 27 27 23 30 30 24 21 20 26 22 23 24 30 26 28 28 28 29 27 28 29 30 32 29 33 40 45 53 53 58 64 70 68 63 54 44 44 49 51 53 55 53 52 47
30 26 27 26 23 24 26 22 27 24 26 26 25 24 19 25 25 25 29 27 28 30 30 28 29 28 23 26 30 32 32 37 42 65 81 73 79 74 72 73 69 59 56 59 62 62 61 61 62
30 30 28 29 26 21 20 24 23 28 25 25 26 20 22 30 24 21 23 23 23 27 26 21 22 23 22 21 22 25 29 35 41 44 81 100 98 96 92 89 89 87 83 75 72 75 68 69 72
22 26 28 28 28 26 23 22 21 25 26 28 23 23 20 25 31 33 30 29 27 28 32 30 25 25 24 23 23 27 24 26 30 46 67 91 100 100 100 96 91 93 94 92 88 84 85 79 73
28 28 26 29 35 34 32 26 21 20 24 25 35 33 14 28 61 32 24 26 29 43 56 52 46 34 31 30 30 26 26 27 29 37 56 84 98 100 100 100 100 100 100 98 96 91 93 95 88
50 45 55 72 46 54 28 24 23 25 28 27 41 32 25 26 36 28 36 40 38 43 47 48 41 40 32 30 29 26 28 27 30 35 47 74 100 100 100 100 100 100 100 100 100 100 100 92 98
74 79 93 87 65 47 36 31 36 38 38 34 36 33 35 27 45 45 45 42 35 34 35 38 38 33 32 31 29 28 28 30 30 40 45 60 93 100 100 100 100 100 100 100 100 100 100 99 97
99 99 100 94 76 62 64 45 38 35 38 59 43 41 42 55 67 52 44 46 41 34 29 30 30 30 26 23 22 22 26 30 33 38 40 45 52 57 87 100 100 100 100 100 100 100 100 100 100
100 100 100 96 82 74 73 56 51 43 44 50 54 54 58 67 50 47 52 49 44 39 34 27 23 22 19 16 14 14 16 18 23 26 29 34 40 40 35 50 78 96 99 100 100 100 100 100 100
100 100 100 100 91 92 78 79 71 73 54 66 57 62 63 61 50 50 45 42 37 34 29 23 20 16 14 13 13 12 13 14 15 17 20 22 23 26 25 24 23 23 34 41 42 49 52 66 68
100 100 100 100 100 100 85 82 73 81 69 67 54 62 60 53 56 47 39 34 29 26 23 19 16 15 15 14 13 13 12 12 12 12 13 16 17 16 17 16 18 30 47 60 62 59 69 69 62
100 100 100 100 100 84 82 86 88 100 98 96 82 69 68 60 50 45 39 32 28 24 22 19 19 18 16 15 13 12 13 15 16 14 12 11 12 13 14 15 18 19 38 84 99 94 79 87 94
100 100 100 100 100 100 91 73 74 76 86 75 70 71 65 59 52 46 42 35 32 29 23 24 23 21 18 17 15 14 14 14 16 17 17 14 13 11 11 14 15 19 22 24 25 25 24 22 26
100 100 100 100 100 100 100 99 90 70 65 65 62 66 68 67 59 56 61 48 41 38 30 25 26 28 23 23 20 16 16 17 21 20 19 16 13 13 13 13 14 15 18 18 18 21 22 21 19
100 100 100 100 100 100 97 90 78 69 61 52 58 70 69 73 68 68 74 70 69 61 47 34 33 32 30 27 23 22 18 19 24 22 19 22 18 17 13 13 14 16 15 16 17 19 19 18 18
87 100 100 100 100 97 76 69 70 67 58 69 63 65 69 65 64 72 78 88 94 95 87 59 37 40 37 32 28 27 23 25 30 24 21 23 22 23 21 21 18 21 18 17 17 17 17 18 17
84 70 70 71 80 71 76 67 66 68 64 59 66 63 68 70 69 64 60 65 76 90 100 100 84 50 46 39 37 27 28 32 31 27 23 21 24 25 25 27 26 24 23 20 18 18 17 17 19
96 94 88 79 74 77 78 70 69 69 71 72 70 70 68 70 68 65 63 56 57 76 93 100 100 75 57 56 37 36 31 36 33 34 31 25 25 28 31 47 41 30 34 34 26 24 24 22 27
89 99 100 95 88 84 86 86 91 81 86 95 91 82 75 74 74 70 63 59 54 64 83 100 100 100 80 71 52 45 37 37 46 43 42 49 30 33 30 32 34 35 34 31 31 32 51 54 42
94 100 100 100 100 100 100 89 94 96 96 87 98 89 90 76 68 75 81 79 59 56 70 91 100 100 100 76 68 52 58 56 66 62 54 45 38 35 32 29 30 31 34 36 34 44 56 58 30
87 93 85 86 92 91 100 98 95 100 100 100 93 87 85 77 76 85 94 87 55 62 71 74 88 99 99 88 79 66 69 53 64 51 40 37 35 38 35 32 30 30 30 35 40 42 46 49 36
100 100 100 88 84 92 81 73 96 100 100 100 89 75 72 75 85 92 90 82 55 53 62 64 69 75 79 89 80 74 65 67 61 61 49 41 35 36 38 34 29 28 33 40 43 45 44 54 46
92 90 75 71 79 86 86 84 96 100 98 91 68 59 51 51 45 44 48 58 57 53 44 51 56 55 59 58 63 63 73 69 67 65 58 46 38 37 37 34 34 32 34 40 51 57 54 62 61
75 77 93 98 94 84 76 67 61 66 77 76 54 45 37 30 30 33 38 38 40 44 46 45 44 47 47 57 53 60 64 82 70 70 68 56 48 46 45 37 46 62 47 56 62 68 63 72 77
90 68 54 51 48 60 54 56 65 65 61 63 58 59 44 36 30 26 25 30 35 36 38 35 40 46 49 50 52 55 64 71 78 94 91 63 56 52 54 52 46 58 78 82 97 99 96 97 100
55 70 68 66 74 57 68 75 73 65 64 60 47 37 33 24 17 12 11 19 23 29 30 44 39 38 44 42 49 60 77 84 98 100 93 73 61 70 66 63 50 50 76 97 100 100 100 100 100
97 73 80 79 82 80 71 72 58 62 45 26 19 21 15 12 9 9 10 12 11 16 22 30 32 37 48 56 65 69 71 90 100 100 96 80 78 80 63 57 58 83 90 88 91 93 96 100 97
Wind_Speed
67 63 61 61 58 57 56 56 55 55 53 53 53 54 53 53 48 47 47 47 44 45 48 47 46 45 42 42 41 41 41 40 40 41 40 41 42 44 44 43 44 44 43 41 41 43 45 44 45
70 68 65 62 62 60 61 60 59 58 56 58 55 57 55 52 50 47 48 49 49 49 50 50 51 50 49 46 46 45 45 47 46 46 46 47 46 47 46 47 48 48 48 48 48 49 49 49 49
74 70 67 65 64 66 67 59 58 58 62 59 59 58 56 52 56 54 52 51 51 50 52 54 54 53 54 52 51 51 51 52 53 54 53 52 53 51 51 51 51 51 51 52 53 53 53 53 51
77 73 71 68 70 71 68 65 64 64 62 63 63 65 60 59 60 61 57 57 57 57 57 54 55 56 57 57 57 57 58 57 57 59 58 59 57 57 57 56 55 55 55 55 55 55 55 55 54
79 77 73 73 77 75 70 68 65 66 64 65 65 66 64 69 69 68 66 64 64 64 61 62 60 59 59 61 63 64 65 64 63 63 64 63 63 62 62 61 61 60 60 60 60 58 58 58 59
82 80 74 74 81 78 73 71 70 68 67 67 70 69 65 71 72 76 77 76 74 73 72 71 70 68 68 67 68 68 68 69 69 69 69 68 68 67 67 66 65 65 64 63 63 63 63 63 63
83 85 81 81 81 78 79 78 74 72 70 69 70 72 72 68 71 72 73 73 74 74 75 74 75 75 73 72 73 72 72 73 74 75 73 73 73 73 72 72 71 70 69 68 67 67 67 67 67
83 83 81 80 80 82 79 77 76 79 78 74 74 78 76 67 73 74 75 76 76 74 73 74 75 77 74 74 74 75 75 75 76 77 78 78 77 77 76 76 75 74 73 73 72 72 70 70 71
81 78 74 75 79 82 85 82 78 83 77 75 77 83 78 78 79 78 75 74 74 72 71 74 75 76 79 78 77 78 77 77 79 80 82 82 81 81 80 79 78 78 77 75 76 74 74 74 74
78 73 68 73 79 82 82 79 75 74 70 73 75 77 76 77 74 75 75 75 76 75 74 73 73 75 74 75 76 79 80 83 83 83 84 84 84 84 84 83 82 81 80 81 76 72 68 69 69
69 65 68 71 76 76 74 72 72 72 64 66 67 68 65 65 66 71 73 70 68 71 71 74 76 75 73 76 77 79 81 81 84 85 83 85 84 84 84 85 85 84 84 86 85 80 80 75 74
69 67 67 70 71 71 70 67 63 64 63 63 64 66 64 69 67 68 70 70 69 69 70 70 71 72 74 74 74 73 70 72 76 78 81 81 83 83 83 85 86 86 83 85 85 86 86 86 88
68 65 69 68 69 72 70 66 65 64 62 67 66 68 68 72 71 69 69 71 70 71 70 69 68 68 68 68 69 67 65 67 69 73 75 77 78 78 78 80 82 82 83 84 83 84 84 82 81
68 67 70 70 71 72 69 70 65 65 69 68 68 68 69 69 70 67 67 70 71 70 68 69 66 67 66 65 65 66 66 66 67 71 71 73 73 73 72 73 74 75 76 76 74 73 74 75 73
73 73 74 72 74 77 76 72 70 67 66 66 67 69 70 70 70 69 68 67 68 69 67 66 64 65 66 65 64 64 64 64 65 69 71 72 74 72 71 72 72 72 72 75 76 71 71 72 76
79 77 77 78 76 75 74 71 75 74 71 68 69 65 63 65 63 63 63 65 66 67 64 63 63 65 65 65 64 62 62 61 64 65 68 69 73 73 73 74 73 73 73 72 71 70 67 67 66
81 80 82 82 79 77 75 72 77 74 74 68 65 62 62 62 63 63 63 64 62 61 60 59 58 59 60 61 62 62 60 58 62 61 64 66 67 69 72 75 74 73 75 74 72 69 67 66 62
84 84 83 81 79 79 79 79 79 74 73 74 66 64 63 64 66 64 64 64 63 61 60 59 55 54 56 57 58 60 61 57 61 60 60 62 64 68 69 70 72 75 75 74 73 71 70 67 63
86 85 85 86 85 85 84 79 77 77 74 75 70 62 65 63 65 70 69 68 65 63 63 62 61 52 57 51 53 56 58 56 59 60 57 58 58 64 64 66 68 69 71 74 74 73 73 69 65
83 85 85 85 85 83 83 75 75 76 71 70 71 69 69 70 69 66 69 73 71 68 66 66 65 61 57 56 53 54 51 56 60 59 57 58 56 60 61 64 66 67 69 71 73 74 73 71 65
80 82 84 84 82 80 79 74 74 71 70 74 75 76 75 75 74 74 75 72 78 73 70 68 69 68 62 59 55 54 52 54 58 59 59 59 58 60 58 61 66 66 67 69 69 70 71 69 66
73 74 77 79 81 77 75 70 71 73 74 77 79 79 80 79 79 79 78 75 76 79 76 72 68 68 68 62 59 54 53 52 55 58 60 58 57 59 59 58 65 68 69 69 68 67 66 66 65
73 71 75 76 74 72 73 76 68 78 81 82 82 83 85 87 85 84 84 81 76 82 81 76 72 68 69 65 66 59 60 53 50 55 58 60 61 63 64 61 64 68 70 70 70 69 69 68 68
71 72 75 75 75 75 75 79 66 77 81 85 87 89 92 91 90 91 91 89 84 83 83 81 76 72 72 68 71 63 66 60 57 60 59 58 58 61 63 64 62 68 70 70 71 71 72 71 69
67 70 74 77 77 78 83 81 75 80 84 89 90 95 96 96 97 97 97 94 89 87 85 86 82 78 74 72 71 69 69 63 63 63 59 59 57 55 59 63 63 65 70 72 72 72 71 71 69
74 76 77 73 71 71 74 72 76 79 80 83 95 96 97 97 95 92 92 92 91 90 87 89 84 81 81 78 78 75 66 67 64 63 61 60 56 54 57 60 61 64 68 72 74 73 71 71 71
61 60 63 65 69 69 69 65 62 68 69 75 83 87 88 89 90 87 86 85 87 91 89 88 85 83 86 82 83 73 65 66 65 62 63 62 57 55 58 58 58 61 66 71 72 73 73 73 73
54 54 50 48 44 43 46 50 56 64 71 74 77 83 85 86 84 82 80 81 86 90 86 88 86 85 83 82 78 72 70 71 65 61 62 60 57 56 57 57 59 61 67 71 72 73 73 74 75
32 30 31 31 38 38 44 51 61 70 75 82 86 87 91 90 85 80 76 85 86 90 79 81 76 74 73 72 67 65 66 65 63 59 60 57 57 57 56 56 59 60 66 73 74 75 75 76 77
23 23 27 32 41 48 52 48 62 66 73 74 74 78 79 76 69 66 63 74 80 81 74 77 78 71 64 58 60 58 55 57 58 57 58 57 55 56 56 56 57 58 62 68 73 76 78 80 81
Wind_Direction
239 239 239 241 242 243 242 241 242 242 243 246 247 250 251 254 259 256 253 252 254 257 259 261 262 262 261 262 264 263 264 268 270 271 270 270 271 269 270 272 272 273 271 269 268 272 278 281 283
240 239 241 243 243 244 245 243 244 244 244 244 247 249 250 255 251 249 250 252 257 256 256 258 261 263 262 262 263 263 265 265 267 270 271 271 271 272 272 273 275 275 275 275 275 274 276 279 281
241 241 242 243 244 243 245 247 247 247 247 246 244 247 248 251 248 249 251 253 255 255 257 257 258 260 261 261 262 264 265 265 267 269 271 270 270 270 270 272 271 272 273 274 276 276 278 279 279
241 242 243 243 245 246 247 247 247 247 249 250 248 244 247 248 248 246 248 250 253 254 255 256 257 257 260 261 262 262 263 264 265 268 268 269 268 268 269 270 270 271 271 272 274 276 279 280 281
244 244 244 247 247 246 245 246 247 248 250 250 251 250 249 247 249 248 249 250 252 253 257 258 259 260 260 260 261 263 264 264 264 264 265 265 267 268 267 268 269 270 272 273 274 275 276 278 279
242 244 246 246 248 249 247 248 246 248 250 251 252 255 253 253 253 252 252 253 254 257 258 258 260 261 261 262 262 262 262 265 265 265 262 262 264 265 266 268 268 269 270 271 273 274 275 276 278
241 244 244 247 250 251 249 247 247 251 251 253 254 254 252 254 255 254 254 256 257 259 259 258 258 260 261 262 263 262 263 263 263 262 262 261 262 263 264 265 266 268 269 270 272 273 275 276 277
239 241 242 245 248 248 248 247 249 251 252 254 256 255 254 255 256 257 259 259 259 258 258 260 260 261 261 264 264 264 263 263 263 261 261 260 261 262 262 265 266 268 269 271 273 274 276 276 277
239 239 240 243 245 249 250 250 250 252 255 257 258 260 260 256 261 261 262 261 261 262 262 264 264 264 266 265 265 267 265 264 262 261 260 259 259 261 263 265 266 268 271 273 273 276 277 277 278
240 241 243 244 246 249 251 251 252 256 257 260 261 262 261 260 262 263 263 263 263 263 264 265 264 264 265 266 266 264 263 263 262 261 261 260 261 261 263 264 266 268 270 271 272 274 273 274 275
239 239 241 245 246 249 251 253 255 257 258 260 260 262 261 260 259 261 263 264 265 265 264 264 264 264 264 264 264 262 262 263 263 263 262 262 262 263 264 266 266 267 268 268 270 271 272 275 276
236 239 243 243 247 249 252 254 256 257 255 260 261 261 259 261 263 265 264 264 267 267 268 266 267 265 264 264 264 263 262 262 262 264 264 264 264 264 264 264 264 265 266 267 269 269 270 273 274
237 237 240 245 248 250 252 254 256 258 259 261 261 262 264 265 264 265 268 270 270 272 270 269 268 268 267 265 264 262 262 262 261 262 262 263 264 266 267 269 269 270 270 270 270 272 274 275 276
234 236 242 242 244 246 251 253 254 258 257 260 263 265 266 266 269 271 270 270 271 267 268 269 267 265 265 264 265 264 264 264 263 263 263 263 264 265 266 269 270 271 272 272 273 274 275 276 277
235 237 240 243 247 249 252 252 253 252 260 263 264 266 268 269 270 269 269 269 267 265 264 265 266 267 267 267 266 266 266 266 267 267 265 265 266 265 266 268 269 271 271 272 271 272 274 277 276
236 235 240 242 245 249 253 255 256 254 262 264 264 266 265 265 262 263 264 266 266 266 263 264 267 267 266 267 267 267 267 267 269 267 267 266 266 265 266 264 265 267 269 271 272 275 275 277 278
237 236 240 243 246 249 252 254 259 259 263 263 263 264 260 256 257 260 263 264 265 267 267 265 265 268 267 268 268 268 267 267 269 269 268 268 266 265 264 263 264 264 267 269 271 272 274 275 278
236 238 242 247 248 250 253 257 261 261 261 263 263 260 255 254 256 258 261 263 266 267 267 267 267 268 270 271 270 270 269 268 270 270 270 269 268 266 263 263 264 264 265 267 268 269 271 273 276
240 241 244 246 250 252 255 257 259 261 261 261 262 259 255 254 255 253 256 259 263 267 270 272 269 268 269 271 272 269 270 270 267 269 270 272 273 269 268 266 264 264 265 265 266 267 269 271 274
242 244 245 247 250 253 256 257 259 261 262 263 262 256 255 257 257 257 258 258 259 263 267 271 272 271 270 271 272 272 272 268 268 267 267 269 271 272 270 267 265 265 264 264 264 266 267 269 271
243 245 247 249 251 253 256 258 259 261 261 263 264 261 261 264 263 263 263 266 256 258 263 266 270 271 270 273 273 276 275 272 270 268 267 266 266 270 271 270 270 268 267 267 267 267 267 267 267
244 247 250 252 253 256 257 257 261 262 265 265 266 266 266 266 267 267 268 270 257 250 255 260 264 267 269 271 273 274 276 278 276 271 265 263 265 268 267 271 270 270 269 269 269 269 267 265 267
245 247 250 252 254 256 260 261 260 266 265 267 266 266 267 268 268 267 269 270 264 250 248 255 260 264 267 269 270 274 276 273 276 269 267 267 267 267 268 267 268 268 268 270 271 269 268 267 269
246 248 249 252 255 257 260 262 261 262 263 262 265 266 267 267 267 267 268 267 262 251 249 251 255 258 262 265 268 271 272 278 276 281 277 271 269 269 269 268 269 268 266 267 268 268 268 268 268
243 245 248 251 254 257 258 259 262 261 261 263 264 264 264 264 264 265 265 264 261 255 251 249 251 254 259 263 266 267 271 275 277 279 281 275 271 269 269 269 268 267 265 264 266 267 269 268 267
243 248 254 256 257 257 261 261 259 262 263 265 265 264 264 264 262 260 259 259 258 258 252 251 250 254 258 260 262 264 268 271 272 277 279 278 275 273 271 271 271 269 264 262 262 265 267 267 268
248 250 254 256 258 257 260 264 263 262 265 264 261 261 261 263 264 262 261 259 258 256 255 254 252 252 254 258 261 263 266 265 269 273 276 277 277 277 277 276 272 267 263 262 262 264 265 267 267
252 255 253 254 258 262 260 264 265 268 268 270 271 271 268 265 263 261 259 257 254 255 253 254 253 252 253 255 258 262 263 263 265 267 271 274 276 278 279 277 274 268 261 260 261 263 264 266 267
239 253 262 264 267 274 271 274 275 274 275 272 271 270 269 269 267 263 257 255 253 254 250 250 248 249 250 253 255 253 253 257 259 262 268 270 273 277 278 275 275 269 262 260 261 262 264 265 267
252 259 271 278 277 277 280 276 275 274 276 280 281 279 278 273 269 264 258 252 248 247 247 245 242 241 243 246 247 248 251 252 255 259 265 268 271 275 273 274 275 273 270 265 264 264 265 266 267